Terminal Aerodrome Forecast
Issued by NWS

Current Version | Previous Version | Text Only | Print | Product List | Glossary On
Versions: 1 2 3 4 5 6 7 8 9 10 11 12 13 14 15 16 17 18 19 20 21 22 23 24 25 26 27 28 29 30 31
000
FTUS41 KILN 260400 AAA
TAFLUK
TAF AMD
KLUK 260450Z 2605/2624 00000KT 1/2SM FZFG SKC
     FM261300 20005KT P6SM SCT200
     FM261500 20009G18KT P6SM SCT200
     FM262200 20007KT P6SM SCT200=

USA.gov is the U.S. government's official web portal to all federal, state and local government web resources and services.